Tracking 31027 objects as of 19-Jul-2025
HD Live streaming from Space Station
objects crossing your sky now

COSMOS 2251 DEB

Track COSMOS 2251 DEB now!
10-day predictions


NORAD ID: 36058
Int'l Code: 1993-036AXV
Perigee: 675.2 km
Apogee: 741.0 km
Inclination: 74.0 °
Period: 98.8 minutes
Semi major axis: 7079 km
RCS: 0.0068 m2 (small)
Launch date: June 16, 1993
Source: Commonwealth of Independent States (former USSR) (CIS)
Launch site: PLESETSK MISSILE AND SPACE COMPLEX (PKMTR)

Note: This is SATELLITE DEBRIS
Your satellite tracking list
STARLINK-6351
Track 1 satellite(s)




NASA's NSSDC Master Catalog

Two Line Element Set (TLE):
1 36058U 93036AXV 25199.58931408  .00002019  00000-0  44326-3 0  9991
2 36058  74.0239 313.6188 0046440 121.7376 238.8327 14.57587118861111
Source of the keplerian elements: AFSPC